2012 BZ130

Initial reported observation by Mt. Lemmon Survey on 2012-01-30.
(Discoverer will be defined when the object is numbered. See this note on how discoverers are determined.)

Orbit

Orbit type: Distant object

Note: WebGL enabled browser required.

epoch2021-07-05.0
epoch JD2459400.5
perihelion date2031-01-29.90432
perihelion JD2462896.40432
argument of perihelion (°)6.66594
ascending node (°)106.10016
inclination (°)15.29901
eccentricity0.5143591
perihelion distance (AU)3.5158533
Tisserand w.r.t. Jupiter2.7
ΔV w.r.t. Earth (km/sec)11.4
semimajor axis (AU)7.2396149
mean anomaly (°)183.11533
mean daily motion (°/day)0.05059770
aphelion distance (AU)10.963
period (years)19.48
P-vector [x]-0.38301779
P-vector [y]0.83486644
P-vector [z]0.39534213
Q-vector [x]-0.88827435
Q-vector [y]-0.45032897
Q-vector [z]0.09040186
absolute magnitude15.4
phase slope0.15
uncertainty3
referenceMPO 640299
observations used50
oppositions2
arc length (days)432
first opposition used2010
last opposition used2012
residual rms (arc-secs)0.28
perturbers coarse indicatorM-v
perturbers precise indicator0038h
first observation date used2010-12-14.0
last observation date used2012-02-19.0
computer nameVeres
JD of orbit computation2456091.472934
perihelion JD uncertainty (days)3.5559E-01
argument of perihelion uncertainty (°)7.7184E-02
ascending node uncertainty (°)1.2474E-02
inclination uncertainty (°)7.1122E-03
eccentricity uncertainty 1.5587E-04
perihelion distance uncertainty (AU)5.0716E-04
Minimum Orbit Intersection Distances (in AU)
for orbit epoch: 2459400.5, reference: E2021-M50
Mercury3.19721
Venus2.79717
Earth2.53209
Mars1.89037
Jupiter1.12894
Saturn0.51527
Uranus8.65948
Neptune19.2848

Observations

50 total observations over interval: 2010 12 14.029012 – 2012 02 19.28744
These data are available for download (format description).

Date (UT) J2000 RA J2000 Dec Magn Location Ref
2010 12 14.029012 03 32 07.44 +04 40 26.1   309 – Cerro Paranal MPS 1414229
2010 12 14.032482 03 32 07.34 +04 40 26.4   309 – Cerro Paranal MPS 1414229
2011 03 31.238640 04 11 01.34 +14 23 34.8   568 – Maunakea MPS 1414229
2011 03 31.240377 04 11 01.45 +14 23 35.4   568 – Maunakea MPS 1414229
2012 01 30.29299 09 28 10.84 +24 39 41.6 20.5 V G96 – Mt. Lemmon Survey MPS 411702
2012 01 30.30108 09 28 10.59 +24 39 45.6 20.6 V G96 – Mt. Lemmon Survey MPS 411702
2012 01 30.30913 09 28 10.34 +24 39 48.6 20.9 V G96 – Mt. Lemmon Survey MPS 411702
2012 01 30.31735 09 28 10.02 +24 39 51.7 20.7 V G96 – Mt. Lemmon Survey MPS 411702
2012 02 04.56219 09 25 20.226 +25 12 48.36 20.1 i F51 – Pan-STARRS 1, Haleakala MPS 411702
2012 02 04.57471 09 25 19.793 +25 12 52.75 20.2 i F51 – Pan-STARRS 1, Haleakala MPS 411702
2012 02 04.61068 09 25 18.599 +25 13 05.76 20.5 r F51 – Pan-STARRS 1, Haleakala MPS 411702
2012 02 04.62622 09 25 18.060 +25 13 11.34 20.4 r F51 – Pan-STARRS 1, Haleakala MPS 411702
2012 02 09.17287 09 22 48.34 +25 39 58.4 20.4 V G51 – Byrne Observatory, Sedgwick Reserve MPS 411702
2012 02 09.18223 09 22 48.01 +25 40 01.7 20.7 V G51 – Byrne Observatory, Sedgwick Reserve MPS 411702
2012 02 09.19158 09 22 47.69 +25 40 04.9 20.1 V G51 – Byrne Observatory, Sedgwick Reserve MPS 411702
2012 02 11.270744 09 21 39.23 +25 51 42.3 19.9 R F65 – Haleakala-Faulkes Telescope North MPS 411702
2012 02 11.272754 09 21 39.17 +25 51 43.0 20.0 R F65 – Haleakala-Faulkes Telescope North MPS 411702
2012 02 11.274742 09 21 39.10 +25 51 43.7 19.8 R F65 – Haleakala-Faulkes Telescope North MPS 411702
2012 02 11.276745 09 21 39.04 +25 51 44.3 20.0 R F65 – Haleakala-Faulkes Telescope North MPS 411702
2012 02 11.278753 09 21 38.97 +25 51 45.0 20.0 R F65 – Haleakala-Faulkes Telescope North MPS 411702
2012 02 12.352400 09 21 03.75 +25 57 33.9 19.9 R F65 – Haleakala-Faulkes Telescope North MPS 411702
2012 02 12.361755 09 21 03.42 +25 57 37.7 20.2 R F65 – Haleakala-Faulkes Telescope North MPS 411702
2012 02 12.370407 09 21 03.12 +25 57 40.4 19.7 R F65 – Haleakala-Faulkes Telescope North MPS 411702
2012 02 12.373499 09 21 03.02 +25 57 41.4 19.5 R F65 – Haleakala-Faulkes Telescope North MPS 411702
2012 02 12.376576 09 21 02.91 +25 57 42.3 19.7 R F65 – Haleakala-Faulkes Telescope North MPS 411702
2012 02 13.21417 09 20 35.72 +26 02 08.4   291 – LPL/Spacewatch II MPS 411702
2012 02 13.22553 09 20 35.33 +26 02 12.0   291 – LPL/Spacewatch II MPS 411702
2012 02 13.24321 09 20 34.73 +26 02 17.7   291 – LPL/Spacewatch II MPS 411702
2012 02 13.31124 09 20 32.612 +26 02 39.38 20.5 w F51 – Pan-STARRS 1, Haleakala MPS 411702
2012 02 13.32578 09 20 32.127 +26 02 44.13 20.5 w F51 – Pan-STARRS 1, Haleakala MPS 411702
2012 02 13.34036 09 20 31.632 +26 02 48.73 20.6 w F51 – Pan-STARRS 1, Haleakala MPS 411703
2012 02 13.35495 09 20 31.140 +26 02 53.44 20.5 w F51 – Pan-STARRS 1, Haleakala MPS 411703
2012 02 13.389560 09 20 29.952 +26 03 04.34 20.1 R 568 – Maunakea MPS 426553
2012 02 13.394005 09 20 29.806 +26 03 05.76 19.9 R 568 – Maunakea MPS 426553
2012 02 13.398576 09 20 29.653 +26 03 07.21 19.7 R 568 – Maunakea MPS 426553
2012 02 14.24694 09 20 02.27 +26 07 31.0 20.3 V H06 – iTelescope Observatory, Mayhill MPS 411703
2012 02 14.24878 09 20 02.22 +26 07 31.4 20.1 V H06 – iTelescope Observatory, Mayhill MPS 411703
2012 02 14.25063 09 20 02.19 +26 07 31.8 19.9 V H06 – iTelescope Observatory, Mayhill MPS 411703
2012 02 14.25247 09 20 02.16 +26 07 32.4 19.9 V H06 – iTelescope Observatory, Mayhill MPS 411703
2012 02 16.19482 09 19 00.19 +26 17 19.1 20.0 V H06 – iTelescope Observatory, Mayhill MPS 411703
2012 02 16.19663 09 19 00.11 +26 17 20.3 19.8 V H06 – iTelescope Observatory, Mayhill MPS 411703
2012 02 16.19845 09 19 00.09 +26 17 20.2 20.3 V H06 – iTelescope Observatory, Mayhill MPS 411703
2012 02 16.20026 09 19 00.06 +26 17 21.6 20.0 V H06 – iTelescope Observatory, Mayhill MPS 411703
2012 02 16.21922 09 18 59.40 +26 17 27.8 20.5 V H06 – iTelescope Observatory, Mayhill MPS 411703
2012 02 16.22197 09 18 59.32 +26 17 28.0 20.9 V H06 – iTelescope Observatory, Mayhill MPS 411703
2012 02 16.22473 09 18 59.23 +26 17 27.9 20.5 V H06 – iTelescope Observatory, Mayhill MPS 411703
2012 02 19.27020 09 17 24.90 +26 31 52.1 20.6 V G96 – Mt. Lemmon Survey MPS 413094
2012 02 19.27587 09 17 24.72 +26 31 53.5 20.2 V G96 – Mt. Lemmon Survey MPS 413094
2012 02 19.28167 09 17 24.54 +26 31 55.2 20.7 V G96 – Mt. Lemmon Survey MPS 413094
2012 02 19.28744 09 17 24.32 +26 31 57.0 20.5 V G96 – Mt. Lemmon Survey MPS 413094